When you browse on this site, cookies collect data to enhance your experience and personalize the content and advertising you see.
Visit our Privacy Policy to learn more. By continuing to use the site, you agree to this use of cookies and data.
  • en France
  • Liste des pays
  • À 7 jours
  • Température de l'eau
  • Carte météo
  • Widgets météo
  • user-avatar
    Se connecter

    Météo par heure à Malanville

    Ce jour, 16 Septembre, Lundi

    Heure Température Précipitation Vent Pression Humidité
    00:00 +26°C° 0 mm 2 m/s 744 mmHg 89%
    01:00 +26°C° 0.1 mm 2 m/s 743 mmHg 89%
    02:00 +26°C° 0.1 mm 2 m/s 743 mmHg 89%
    03:00 +26°C° 0.1 mm 2 m/s 743 mmHg 90%
    04:00 +26°C° 0 mm 2 m/s 743 mmHg 89%
    05:00 +26°C° 0 mm 2 m/s 743 mmHg 88%
    06:00 +26°C° 0 mm 2 m/s 743 mmHg 87%
    07:00 +27°C° 0 mm 2 m/s 744 mmHg 84%
    08:00 +28°C° 0 mm 2 m/s 744 mmHg 81%
    09:00 +29°C° 0 mm 3 m/s 745 mmHg 77%
    10:00 +30°C° 0 mm 3 m/s 744 mmHg 71%
    11:00 +33°C° 0 mm 3 m/s 744 mmHg 65%
    12:00 +34°C° 0 mm 4 m/s 743 mmHg 58%
    13:00 +34°C° 0 mm 3 m/s 743 mmHg 57%
    14:00 +35°C° 0 mm 2 m/s 742 mmHg 55%
    15:00 +35°C° 0 mm 2 m/s 741 mmHg 53%
    16:00 +34°C° 0.1 mm 2 m/s 742 mmHg 58%
    17:00 +31°C° 0.1 mm 2 m/s 742 mmHg 63%
    18:00 +30°C° 0.1 mm 2 m/s 742 mmHg 68%
    19:00 +29°C° 0.4 mm 2 m/s 743 mmHg 72%
    20:00 +28°C° 0.4 mm 2 m/s 743 mmHg 75%
    21:00 +27°C° 0.4 mm 3 m/s 744 mmHg 79%
    22:00 +27°C° 0.3 mm 2 m/s 744 mmHg 81%
    23:00 +26°C° 0.3 mm 2 m/s 744 mmHg 82%

    Demain, 17 Septembre, Mardi

    Heure Température Précipitation Vent Pression Humidité
    00:00 +26°C° 0.3 mm 1 m/s 743 mmHg 84%
    01:00 +26°C° 0.1 mm 1 m/s 743 mmHg 84%
    02:00 +26°C° 0.1 mm 1 m/s 742 mmHg 84%
    03:00 +26°C° 0.1 mm 1 m/s 742 mmHg 85%
    04:00 +26°C° 0 mm 1 m/s 742 mmHg 86%
    05:00 +26°C° 0 mm 1 m/s 743 mmHg 88%
    06:00 +25°C° 0 mm 2 m/s 743 mmHg 90%
    07:00 +27°C° 0 mm 2 m/s 743 mmHg 84%
    08:00 +28°C° 0 mm 2 m/s 744 mmHg 79%
    09:00 +30°C° 0 mm 2 m/s 744 mmHg 73%
    10:00 +31°C° 0 mm 2 m/s 744 mmHg 67%
    11:00 +34°C° 0 mm 2 m/s 743 mmHg 61%
    12:00 +35°C° 0 mm 2 m/s 743 mmHg 55%
    13:00 +35°C° 0 mm 2 m/s 742 mmHg 55%
    14:00 +34°C° 0 mm 1 m/s 742 mmHg 55%
    15:00 +34°C° 0 mm 1 m/s 741 mmHg 55%
    16:00 +33°C° 0.1 mm 1 m/s 741 mmHg 60%
    17:00 +31°C° 0.1 mm 1 m/s 741 mmHg 65%
    18:00 +30°C° 0.1 mm 1 m/s 741 mmHg 70%
    19:00 +29°C° 0.4 mm 1 m/s 742 mmHg 73%
    20:00 +29°C° 0.4 mm 1 m/s 742 mmHg 76%
    21:00 +28°C° 0.4 mm 1 m/s 743 mmHg 79%
    22:00 +28°C° 0.3 mm 1 m/s 743 mmHg 82%
    23:00 +27°C° 0.3 mm 2 m/s 743 mmHg 85%

    Après-demain, 18 Septembre, Mercredi

    Heure Température Précipitation Vent Pression Humidité
    00:00 +27°C° 0.3 mm 2 m/s 743 mmHg 88%
    01:00 +27°C° 0.2 mm 3 m/s 743 mmHg 88%
    02:00 +27°C° 0.2 mm 3 m/s 742 mmHg 89%
    03:00 +27°C° 0.2 mm 3 m/s 742 mmHg 90%
    04:00 +26°C° 0 mm 3 m/s 742 mmHg 90%
    05:00 +26°C° 0 mm 3 m/s 743 mmHg 90%
    06:00 +26°C° 0 mm 2 m/s 743 mmHg 90%
    07:00 +28°C° 0 mm 3 m/s 743 mmHg 82%
    08:00 +30°C° 0 mm 3 m/s 744 mmHg 74%
    09:00 +32°C° 0 mm 4 m/s 744 mmHg 67%
    10:00 +34°C° 0 mm 3 m/s 744 mmHg 60%
    11:00 +35°C° 0 mm 3 m/s 743 mmHg 54%
    12:00 +36°C° 0 mm 3 m/s 743 mmHg 48%
    13:00 +36°C° 0 mm 2 m/s 743 mmHg 47%
    14:00 +37°C° 0 mm 2 m/s 742 mmHg 47%
    15:00 +37°C° 0 mm 2 m/s 742 mmHg 46%
    16:00 +35°C° 0 mm 2 m/s 742 mmHg 52%
    17:00 +34°C° 0 mm 3 m/s 742 mmHg 58%
    18:00 +31°C° 0 mm 3 m/s 742 mmHg 63%
    19:00 +30°C° 0 mm 3 m/s 743 mmHg 68%
    20:00 +29°C° 0 mm 2 m/s 743 mmHg 73%
    21:00 +28°C° 0 mm 2 m/s 744 mmHg 78%
    22:00 +28°C° 0.4 mm 2 m/s 744 mmHg 81%
    23:00 +27°C° 0.4 mm 2 m/s 744 mmHg 83%

    19 Septembre, Jeudi

    Heure Température Précipitation Vent Pression Humidité
    00:00 +27°C° 0.4 mm 2 m/s 744 mmHg 86%
    01:00 +27°C° 0.4 mm 2 m/s 743 mmHg 88%
    02:00 +26°C° 0.4 mm 3 m/s 743 mmHg 90%
    03:00 +26°C° 0.4 mm 3 m/s 743 mmHg 92%
    04:00 +26°C° 0 mm 3 m/s 743 mmHg 92%
    05:00 +26°C° 0 mm 3 m/s 744 mmHg 92%
    06:00 +26°C° 0 mm 3 m/s 744 mmHg 92%
    07:00 +27°C° 0 mm 3 m/s 744 mmHg 85%
    08:00 +29°C° 0 mm 3 m/s 745 mmHg 77%
    09:00 +31°C° 0 mm 3 m/s 745 mmHg 70%
    10:00 +33°C° 0 mm 3 m/s 745 mmHg 65%
    11:00 +34°C° 0 mm 2 m/s 744 mmHg 61%
    12:00 +35°C° 0 mm 2 m/s 744 mmHg 56%
    13:00 +35°C° 0 mm 3 m/s 744 mmHg 57%
    14:00 +35°C° 0 mm 3 m/s 743 mmHg 58%
    15:00 +34°C° 0 mm 3 m/s 743 mmHg 59%
    16:00 +33°C° 0.2 mm 3 m/s 743 mmHg 65%
    17:00 +31°C° 0.2 mm 2 m/s 742 mmHg 70%
    18:00 +29°C° 0.2 mm 2 m/s 742 mmHg 75%
    19:00 +29°C° 0.3 mm 2 m/s 743 mmHg 77%
    20:00 +28°C° 0.3 mm 2 m/s 743 mmHg 79%
    21:00 +28°C° 0.3 mm 2 m/s 744 mmHg 81%
    22:00 +28°C° 0.1 mm 2 m/s 744 mmHg 83%
    23:00 +27°C° 0.1 mm 2 m/s 744 mmHg 86%

    20 Septembre, Vendredi

    Heure Température Précipitation Vent Pression Humidité
    00:00 +27°C° 0.1 mm 3 m/s 744 mmHg 88%
    01:00 +27°C° 0 mm 2 m/s 744 mmHg 88%
    02:00 +27°C° 0 mm 2 m/s 743 mmHg 88%
    03:00 +27°C° 0 mm 2 m/s 743 mmHg 88%
    04:00 +27°C° 0 mm 3 m/s 743 mmHg 88%
    05:00 +26°C° 0 mm 3 m/s 744 mmHg 88%
    06:00 +26°C° 0 mm 4 m/s 744 mmHg 89%
    07:00 +27°C° 0 mm 4 m/s 744 mmHg 84%
    08:00 +28°C° 0 mm 3 m/s 744 mmHg 79%
    09:00 +29°C° 0 mm 3 m/s 744 mmHg 74%
    10:00 +30°C° 0 mm 3 m/s 744 mmHg 70%
    11:00 +31°C° 0 mm 2 m/s 743 mmHg 66%
    12:00 +32°C° 0 mm 2 m/s 743 mmHg 62%
    13:00 +34°C° 0 mm 2 m/s 742 mmHg 58%
    14:00 +34°C° 0 mm 1 m/s 742 mmHg 54%
    15:00 +35°C° 0 mm 1 m/s 742 mmHg 50%
    16:00 +33°C° 0 mm 1 m/s 742 mmHg 56%
    17:00 +32°C° 0 mm 1 m/s 742 mmHg 62%
    18:00 +28°C° 0 mm 0 m/s 742 mmHg 67%
    19:00 +30°C° 0 mm 1 m/s 743 mmHg 70%
    20:00 +29°C° 0 mm 2 m/s 743 mmHg 73%
    21:00 +28°C° 0 mm 3 m/s 744 mmHg 76%
    22:00 +28°C° 0.1 mm 3 m/s 744 mmHg 79%
    23:00 +27°C° 0.1 mm 3 m/s 744 mmHg 83%

    21 Septembre, Samedi

    Heure Température Précipitation Vent Pression Humidité
    00:00 +27°C° 0.1 mm 2 m/s 744 mmHg 86%
    01:00 +26°C° 0 mm 2 m/s 743 mmHg 85%
    02:00 +26°C° 0 mm 3 m/s 743 mmHg 85%
    03:00 +26°C° 0 mm 3 m/s 742 mmHg 84%
    04:00 +26°C° 0 mm 3 m/s 743 mmHg 85%
    05:00 +26°C° 0 mm 2 m/s 743 mmHg 86%
    06:00 +26°C° 0 mm 2 m/s 743 mmHg 86%
    07:00 +27°C° 0 mm 2 m/s 744 mmHg 80%
    08:00 +29°C° 0 mm 2 m/s 744 mmHg 74%
    09:00 +30°C° 0 mm 2 m/s 744 mmHg 68%
    10:00 +32°C° 0 mm 2 m/s 744 mmHg 63%
    11:00 +34°C° 0 mm 2 m/s 744 mmHg 58%
    12:00 +35°C° 0 mm 2 m/s 743 mmHg 53%
    13:00 +36°C° 0 mm 2 m/s 743 mmHg 52%
    14:00 +36°C° 0 mm 2 m/s 742 mmHg 50%
    15:00 +37°C° 0 mm 2 m/s 741 mmHg 49%
    16:00 +35°C° 0 mm 2 m/s 741 mmHg 54%
    17:00 +34°C° 0 mm 2 m/s 741 mmHg 60%
    18:00 +31°C° 0 mm 2 m/s 741 mmHg 65%
    19:00 +31°C° 0 mm 2 m/s 742 mmHg 67%
    20:00 +30°C° 0 mm 2 m/s 742 mmHg 68%
    21:00 +30°C° 0 mm 3 m/s 743 mmHg 70%
    22:00 +29°C° 0 mm 3 m/s 743 mmHg 72%
    23:00 +29°C° 0 mm 3 m/s 743 mmHg 75%
    Voir plus